sat.trackr.live / text

‹ back to catalog

STARLINK-37345

NORAD 69156 · 2026-111J

PAYLOAD ACTIVE UNKNOWN

§ Identity

Operator
Country
US
Launch date
2026-05-21
Launch site
AFETR
Launch vehicle
Mass (kg)
RCS (m²)

Purposes: comms

External: N2YO · Heavens-Above · Gunter

§ Orbital elements

Epoch: 2026-09-19T19:55:17.167584Z

Period
93.85 min
Inclination
53.1603°
Eccentricity
0.0001014
Mean motion
15.34407441 rev/d
Perigee alt
462.0 km
Apogee alt
463.4 km
Semi-major
6,840.8 km
B*
4.3281e-4
RAAN
69.0086°
Arg perigee
100.5490°
Mean anomaly
259.5627°
Rev number
1,879

§ Raw data

STARLINK-373451 69156U 26111J   26262.83005981  .00014278  00000+0  43281-3 0  99922 69156  53.1603  69.0086 0001014 100.5490 259.5627 15.34407441 18795

JSON: /api/v1/satellites/69156 · /tle

For live sub-satellite position, see the globe view (requires WebGL).

§ Visibility from observer

Set your observer location to see the next 7 days of passes ≥ 10°. The values pass through the URL so the page stays shareable.

No JS? Fill the form by hand. The geolocation button needs JavaScript.